Location: Ajisawe
(8.4333°N, 4.3833°E)
Time: 01:06:58
(UTC+00:00)

Cosmos 1844 Rocket - Pass Details

Date: 07 June 2020
Orbit: 826 x 843 km, 71.0° (Epoch: 13 July)

Event Time Altitude Azimuth Distance (km) Brightness Sun altitude
Rises 03:51:33 0° 342° (NNW) 3,354 5.9 -21.3°
Reaches altitude 10° 03:53:59 10° 341° (NNW) 2,420 5.2 -20.8°
Maximum altitude 03:59:31 78° 255° (WSW) 844 2.5 -19.6°
Drops below altitude 10° 04:05:03 10° 169° (S) 2,421 4.9 -18.4°
Sets 04:07:29 0° 167° (SSE) 3,355 5.7 -17.8°
